Regional Weather Roundup
Issued by NWS

Home | Current Version | Previous Version | Text Only | Print | Product List | Glossary On
Versions: 1 2 3 4 5 6 7 8 9 10 11 12 13 14 15 16 17 18 19 20 21 22 23 24 25 26 27 28 29 30 31 32 33 34 35 36 37 38 39 40 41 42 43 44 45 46 47 48 49 50
000
ASHW40 PHFO 060943
RWRHI

WEATHER ROUNDUP FOR HAWAII
NATIONAL WEATHER SERVICE HONOLULU HI
1100 PM HST MON DEC 05 2016

THIS IS AN AUTOMATED REPORT THAT HAS NOT BEEN QUALITY CONTROLLED.

NOTE..."FAIR" INDICATES FEW OR NO CLOUDS BELOW 12,000 FEET WITH NO
SIGNIFICANT WEATHER AND/OR OBSTRUCTIONS TO VISIBILITY.

* - THESE SITES REPORT LIMITED FIELDS

HIZ001>004-061000-
KAUAI-NIIHAU-

CITY           SKY/WX    TMP DP  RH WIND       PRES   REMARKS
LIHUE APT      CLOUDY    72  65  78 NW7       29.97F
PORT ALLEN*      N/A     72 N/A N/A E5          N/A
POIPU*           N/A     70 N/A N/A N6G13       N/A
PRINCEVILLE*     N/A     68 N/A N/A S2          N/A
KOKOLE POINT*  NOT AVBL
MOLOAA DAIRY*    N/A     68  66  94 SE1G8       N/A
WAIMEA HTS*      N/A     72  63  73 NW3         N/A
PUU OPAE*      NOT AVBL
PUU LUA*       NOT AVBL
MAKAHA RIDGE*    N/A     68  59  73 CALM        N/A
$$

HIZ005>011-061000-
OAHU-

CITY           SKY/WX    TMP DP  RH WIND       PRES   REMARKS
HONOLULU       PTCLDY    69  65  86 N5        29.95F
KALAELOA       CLEAR     71  66  84 NE6       29.96F
KANEOHE MCB    NOT AVBL
WHEELER FIELD  FAIR      67  66  98 VRB3      29.97S
BELLOWS*         N/A    N/A N/A N/A W5          N/A
KAHUKU*          N/A    N/A N/A N/A E1          N/A
WHEELER*         N/A    N/A N/A N/A N3          N/A
WAIANAE HARBOR   N/A    N/A N/A N/A NE2         N/A
DILLINGHAM*      N/A     66  63  88 MISG        N/A
KAHUKU TRN*      N/A     81  79  94 NW1         N/A
KAWAILOA*        N/A     66  63  88 NE2         N/A
KII*             N/A     70  66  88 S3          N/A
MAKUA RANGE*     N/A     72  64  78 NW7         N/A
OAHU FOREST NW NOT AVBL
SCHOFIELD BRK*   N/A     63  63 100 MISG        N/A
SCHOFIELD S*   NOT AVBL
WAIANAE VLY*   NOT AVBL
KUAOKALA*      NOT AVBL
HONOULIUULI*   NOT AVBL
MOKUOLOE IS*   NOT AVBL
PALEHUA*       NOT AVBL
WAIAWA PHB*    NOT AVBL
$$

HIZ012>013-061000-
MOLOKAI-

CITY           SKY/WX    TMP DP  RH WIND       PRES   REMARKS
MOLOKAI AIRPT    N/A     71  67  87 N3        29.98R
KALAUPAPA      NOT AVBL
MAKAPULAPAI*     N/A     68  66  94 SE6         N/A
MOLOKAI 1*     NOT AVBL
PUU ALII*        N/A     56  56 100 N1          N/A
$$

HIZ016-061000-
KAHOOLAWE-

CITY           SKY/WX    TMP DP  RH WIND       PRES   REMARKS
KAHOOLAWE*     NOT AVBL
HAKIOAWA*        N/A     69  68  96 MISG      30.37S
HONOKANAIA*      N/A     73  68  83 NE5         N/A
KANELOA*         N/A     72  68  88 NE6G20    30.01
KEALIALALO*    NOT AVBL
LUA MAKIKA*    NOT AVBL
$$

HIZ014>015-061000-
LANAI-

CITY           SKY/WX    TMP DP  RH WIND       PRES   REMARKS
LANAI CITY     MOCLDY    67  66  97 NW6       30.01S
LANAI 1*       NOT AVBL
$$

HIZ017>028-061000-
MAUI-

CITY           SKY/WX    TMP DP  RH WIND       PRES   REMARKS
KAHULUI        CLEAR     71  66  84 E7        29.95S
KAPALUA-W MAUI NOT AVBL
HANA AIRPORT   MOCLDY    66  66 100 SW5       29.98S
HANA*            N/A     68 N/A N/A SW3         N/A
HALEAKALA SUMM   N/A     45  45 100 S10G25      N/A
MAALAEA BAY*     N/A     72 N/A N/A NE8         N/A
HALEAKALA*     NOT AVBL
KAUPO GAP*       N/A     72  68  88 W2G8        N/A
KULA 1*          N/A     55  53  92 SE9         N/A
$$

HIZ023>026-061000-
BIG ISLAND OF HAWAII COAST AND LOWER SLOPES-

CITY           SKY/WX    TMP DP  RH WIND       PRES   REMARKS
KAILUA KONA    MOCLDY    75  71  87 S6        29.91F
HILO           CLOUDY    70  68  93 CALM      29.94F
HONOKAA*         N/A     66 N/A N/A VRB1        N/A
KAWAIHAE MWT*    N/A     75 N/A N/A SE3         N/A
KAWAIHAE*      NOT AVBL
SOUTH POINT*     N/A     70 N/A N/A NW3         N/A
UPOLU AIRPORT* NOT AVBL
KAMUELA*       CLOUDY    63  57  82 E8        30.04S
HAKALAU*         N/A     53  53  98 W2          N/A
KALOKO-HONOKO*   N/A     73  70  88 E3        29.91S
PALI 2*          N/A     63  63 100 W2          N/A
KEALAKOMO*       N/A     73  68  83 N2          N/A
KAUPULEHU*       N/A     70 N/A N/A SE5         N/A
KAPAPALA*      NOT AVBL
LOWER KAHUKU*    N/A     61  59  94 N1          N/A
PUHE CS*         N/A     75  64  69 E3          N/A
PUHO CS*         N/A     74  67  80 E1          N/A
PTA KEAMUKU*     N/A    N/A N/A N/A CALM        N/A
WAIKOLOA*        N/A     70  63  78 SE5G12      N/A
$$

HIZ027>028-061000-
BIG ISLAND OF HAWAII INTERIOR AND SUMMMITS-

CITY           SKY/WX    TMP DP  RH WIND       PRES   REMARKS
BRADSHAW FIELD CLOUDY    57  51  81 W5        30.28S
MK VISITOR CEN   N/A     50  41  71 N13         N/A
MAUNA KEA*       N/A     34  34 100 SW17        N/A  WCI  23
MAUNA LOA*       N/A     43  39  87 MISG        N/A
MAUNA LOA 1*   NOT AVBL
PTA KIPUKA*      N/A     70  66  88 S3          N/A
PTA RANGE 17*    N/A     59  52  77 E1          N/A
PTA WEST*        N/A     61  57  88 N2          N/A
NENE CABIN*      N/A     55  45  67 NW3         N/A
AHUMOA*          N/A     55  51  85 S8          N/A
PTA PORTABLE*  NOT AVBL
PUU MALI*        N/A     55  55 100 E2G9        N/A
$$

HIC003-061000-
NORTHWEST ISLANDS-

CITY           SKY/WX    TMP DP  RH WIND       PRES   REMARKS
MIDWAY ISLAND  LGT RAIN  66  59  77 SE12      30.01R
MIDWAY NOS*      N/A     66 N/A N/A MISG      29.98S
FRENCH FRIGATE NOT AVBL
$$

PHZ110>124-180-061000-
BUOY REPORTS

STATION/POSITION TIME  TEMP    WIND        PRES    WAVE   SWELL
                       AIR SEA DIR/SP/G            HT/PER HT/DIR
                 (UTC) (F)     (DEG/KT/KT) (MB)    (FT/S) (FT/D)
BUOY 51001       0920   73 77  360/  2/  4 1014.1
BUOY 51101       0850   73 77  310/  2/  4 1015.1R   9/12   8/ 20
BUOY 51100       NOT AVBL
BUOY 51002       0920   77 78   30/ 10/ 12 1012.9
BUOY 51003       0850   77 79   70/  2/  4 1013.9R   7/12   7/330
BUOY 51004       0850   76 79  130/ 12/ 14 1013.5F   8/10   7/ 60
BARBERS PT BUOY  NOT AVBL
WAIMEA BAY BUOY  NOT AVBL
KAILUA BAY BUOY  0904      78                N/A     6/13   5/ 10
LANAI BUOY       0915      79                N/A     3/13   2/260
BARBERS PT 2     0909      79                N/A     4/11   3/290
PAUWELA MAUI     0909      78                N/A     8/11   5/360
HILO             0912      77                N/A     8/ 9   3/350
KANEOHE BAY BUOY 0906      77                N/A     6/13   5/350
HANALEI KAUAI    0922      77                N/A     9/11   7/360
KAHULUI HARBOR   0918   73 76  320/  6/  7 1014.2
HONOLULU HARBOR  0918   73 78   20/  2/  4 1014.8
KILO NALU        NOT AVBL
HILO HARBOR      0918   70 75  200/  3/  3 1013.7
MOKUOLOE         0836          220/  2/  3   N/A
NAWILIWILI       0918   70 78  260/  6/  7 1014.5
WHOTS BUOY       NOT AVBL
BUOY 51028       NOT AVBL
$$

......................KEY........................................
  SKY/WX - SKY CONDITIONS/PRESENT WEATHER
  TMP    - TEMPERATURE IN FAHRENHEIT
  DWPT   - DEWPOINT IN FAHRENHEIT
  RH     - RELATIVE HUMIDITY IN PERCENT
  WIND   - DIRECTION AND SPEED /MPH FOR ISLANDS...KTS FOR BUOYS/
  PRES   - MEAN SEA LEVEL PRESSURE IN INCHES OF HG
  VSB    - VISIBILITY IN MILES
  HX     - HEAT INDEX
  WCI    - WIND CHILL INDEX
  VRB    - VARIABLE WIND DIRECTION
  N/A    - NOT AVAILABLE




USA.gov is the U.S. government's official web portal to all federal, state and local government web resources and services.